CZ-3B DEB, 40188

Orbit data source: Space-Track

CZ-3B DEB, 40188 is space debris in HEO originally from a launch on Mon, 19 Dec 2011 UTC launched from the Xichang Space Center, China (XSC). Debris objects in space refer to the collection of defunct objects orbiting the Earth. Examples of debris include non-operational satellites, rocket bodies, and fragments generated from explosions, collisions, or faulty payload assembly.

Loading next visibility...
Identifier
40188, 2011-077M
Orbit
HEO
Country
Flag of CNCN / PRC
Related business
Manufacturer
CALT
Mission
Spacecraft
Bus & Motor
Unknown
Mass
Unknown
Launch date (UTC)
2011-12-19 (14 years ago)
Launch vehicle
Unknown
Launch site
Xichang Space Center, China (XSC)
Object type
Payload
Rocket body
Debris
Shape & HBR
Unknown
Radar Cross Section
Medium (>0.1 m² and <1 m²)

Expand to show TLE details & history
Last TLE update: 2 months ago

TLE from 2 months ago
0 CZ-3B DEB
1 40188U 11077M   25205.22483303 -.00000606  00000-0 -32888-1 0  9990
2 40188  26.7208  65.9828 7363207 263.1392  16.2067  1.91390581 88522
Epoch: 2025-07-24T05:23Z
TLE epoch observation values (Epoch: 2025-07-24T05:23:45.573Z)
Latitude
-0.00017°
Longitude
43.00323°
Altitude
7,393.288 km
Speed
6.583 km/s
True Right ascension
04h 24m 32s
True Declination
0° 00' 01"
Sunlit
Object was in daylight at epoch
Visualization orbit readout
Latitude
Unknown
Longitude
Unknown
Altitude
Unknown
Speed
Unknown
Apparent Right ascension
Unknown
Apparent Declination
Unknown
Sunlit
N/A
Visualization observer readout
Local Sidereal Time
12:11:47
Azimuth
Unknown
Elevation
Unknown
Doppler factor
Unknown
Orbital elements
Apogee altitude
41,207.472 km
Perigee altitude
848.259 km
Semi-major axis
27,406.002 km
Eccentricity
0.73632
Inclination
26.7208°
RAAN
65.9828°
Arg. of periapsis
263.1392°
True anomaly
96.43091°
Mean anomaly
16.2067°
Eccentric anomaly
47.12259°
Mean motion
0.47838 °/min
Orbital period
752.54 mins
BSTAR
-0.032888
Loading maneuver chart data...
Computing Atmospheric mass density...
Loading historical data...
Loading historical data...
Loading historical data...
Loading historical data...
Loading historical data...
Loading historical data...
Loading historical data...

Documentation

Showing up to 5 results
|